Location: Unspecified
(45.2733°N, 0.0000°E)
Time: 21:52:04
(UTC+00:00)

ISS - Visible Passes

Search period start: 22 October 2019 00:00
Search period end: 01 November 2019 00:00
Orbit: 411 x 421 km, 51.6° (Epoch: 23 October)

Date Brightness Start Highest point End Pass type
(mag) Time Alt. Az. Time Alt. Az. Time Alt. Az.
23 Oct -0.8 05:36:03 10° S 05:38:12 16° SE 05:40:23 10° E visible
25 Oct -2.4 05:34:23 10° SSW 05:37:33 39° SE 05:40:43 10° ENE visible
26 Oct -1.6 04:46:50 13° S 04:49:06 24° SE 04:51:53 10° E visible
27 Oct -1.0 04:00:54 15° SE 04:00:54 15° SE 04:02:42 10° E visible
27 Oct -3.8 05:33:50 11° WSW 05:37:01 88° NNW 05:40:24 10° ENE visible
28 Oct -3.4 04:47:43 45° SSW 04:48:27 59° SE 04:51:46 10° ENE visible
29 Oct -1.3 04:01:27 23° E 04:01:27 23° E 04:03:03 10° ENE visible
29 Oct -3.3 05:34:21 18° W 05:36:37 45° NNW 05:39:53 10° NE visible
30 Oct -3.7 04:47:58 63° NNW 04:47:58 63° NNW 04:51:18 10° ENE visible
31 Oct -1.1 04:01:29 20° ENE 04:01:29 20° ENE 04:02:40 10° ENE visible
31 Oct -2.6 05:34:23 18° WNW 05:36:18 30° N 05:39:21 10° NE visible
